Regional Weather Roundup
Issued by NWS

Home | Current Version | Previous Version | Graphics & Text | Print | Product List | Glossary On
Versions: 1 2 3 4 5 6 7 8 9 10 11 12 13 14 15 16 17 18 19 20 21 22 23 24 25 26 27 28 29 30 31 32 33 34 35 36 37 38 39 40 41 42 43 44 45 46 47 48 49 50
386
ASUS45 KABQ 262010
RWRNM
NEW MEXICO REGIONAL WEATHER ROUNDUP
NATIONAL WEATHER SERVICE ALBUQUERQUE NM
200 PM MDT THU MAY 26 2016

NOTE: "FAIR" MEANS FEW OR NO CLOUDS BELOW 12,000 FEET AGL WITH NO
       SIGNIFICANT WEATHER OR OBSTRUCTIONS TO VISION.

      THIS PRODUCT IS RELEASED AS TWO VERSIONS.  ONE VERSION NEAR
      THE TOP OF THE HOUR CONTAINING PRELIMINARY DATA FROM ALBUQUERQUE
      AND OTHER STATIONS.  A FINAL VERSION WITH ADDITIONAL DATA IS
      ISSUED ABOUT 10 MINUTES AFTER THE HOUR.

NMZ501-503-504-510>518-262100-
NORTHWEST PLATEAU/NORTHCENTRAL MOUNTAINS

CITY           SKY/WX    TMP DP  RH WIND       PRES   REMARKS
FARMINGTON     FAIR      68  -6   5 VRB6      29.88F
LOS ALAMOS     FAIR      63  13  14 S16G28    29.94F
SANTA FE       FAIR      71   6   8 SW16G29   29.89F
TAOS           FAIR      66  19  16 W21G26    29.89F
ANGEL FIRE     FAIR      59  24  25 W14G22    29.94F

$$
NMZ402-403-502-505>509-262100-
WESTCENTRAL MOUNTAINS/SOUTHWEST MOUNTAINS

CITY           SKY/WX    TMP DP  RH WIND       PRES   REMARKS
GALLUP         PTSUNNY   62  18  18 W16G23    30.00F
GRANTS         FAIR      65   6  10 SW8G17    29.99F
SILVER CITY      N/A     68  14  12 W17G32    30.01F

$$
NMZ407-409-411-412-262100-
SOUTHERN DESERTS

CITY           SKY/WX    TMP DP  RH WIND       PRES   REMARKS
LORDSBURG      FAIR      73  18  12 SW17G28   29.95F
DEMING         FAIR      78  16   9 W22G32    29.92F
LAS CRUCES     FAIR      78  18  10 SW22G28   29.93F
HOLLOMAN AFB   FAIR      79  14   8 W28       29.89F
ALAMOGORDO     FAIR      77  19  11 W15G22    29.91F
T OR C         FAIR      77   7   7 SW14G23   29.89F

$$
NMZ519>523-262100-
CENTRAL VALLEYS/CENTRAL HIGHLANDS

CITY           SKY/WX    TMP DP  RH WIND       PRES   REMARKS
ALBUQUERQUE    PTSUNNY   71   7   8 S16G26    29.88F
DOUBLE EAGLE   PTSUNNY   70  18  13 SW14G25   29.91F
MORIARTY ARPT  FAIR      72   6   8 SW18G41   29.93F
CLINES CORNERS FAIR      67  11  11 W20G32    29.94F
BELEN          FAIR      75   7   7 SW24G30   29.89F
SOCORRO        FAIR      77   9   7 SW24G32   29.87F

$$
NMZ524>526-539-540-262100-
SOUTHCENTRAL MOUNTAINS

CITY           SKY/WX    TMP DP  RH WIND       PRES   REMARKS
RUIDOSO          N/A     66  14  13 SW32G39   30.01F

$$
NMZ527>531-262100-
NORTHEAST HIGHLANDS/NORTHEAST PLAINS

CITY           SKY/WX    TMP DP  RH WIND       PRES   REMARKS
LAS VEGAS      FAIR      69   8   9 SW26G36   29.90F
RATON          FAIR      75  15  10 S15G36    29.80F
CLAYTON        FAIR      82  19   9 S24G38    29.78F

$$
NMZ532>537-262100-
EASTCENTRAL PLAINS

CITY           SKY/WX    TMP DP  RH WIND       PRES   REMARKS
TUCUMCARI      FAIR      87  11   6 W31G40    29.76F
CANNON AFB     FAIR      83  24  11 SW18G33   29.82F
CLOVIS AIRPORT FAIR      82  28  14 SW22G32   29.82F

$$
NMZ028-029-538-262100-
SOUTHEAST PLAINS

CITY           SKY/WX    TMP DP  RH WIND       PRES   REMARKS
ROSWELL        FAIR      88  17   7 SW23G36   29.80F
ARTESIA        FAIR      88  25  10 SW28G39   29.83F
CARLSBAD       FAIR      91  22   8 W24G35    29.80F
HOBBS          MOSUNNY   90  23   9 SW25G36   29.83F


$$




USA.gov is the U.S. government's official web portal to all federal, state and local government web resources and services.